Regional Weather Roundup
Issued by NWS

Home | Current Version | Previous Version | Graphics & Text | Print | Product List | Glossary On
Versions: 1 2 3 4 5 6 7 8 9 10 11 12 13 14 15 16 17 18 19 20 21 22 23 24 25 26 27 28 29 30 31 32 33 34 35 36 37 38 39 40 41 42 43 44 45 46 47 48 49 50
000
ASUS44 KMEG 010600
RWRTN
TENNESSEE HOURLY STATE WEATHER ROUNDUP
NATIONAL WEATHER SERVICE MEMPHIS TN
100 AM CDT SAT AUG 01 2015

TNZ002-004-019-021-049-052-054-088>092-010700-
WEST TENNESSEE

CITY           SKY/WX    TMP DP  RH WIND       PRES   REMARKS
MEMPHIS INTL   MOCLDY    80  66  62 N3        30.05S
NWS MEMPHIS      N/A     73 N/A N/A MISG        N/A
JACKSON        CLEAR     69  65  86 SW3       30.05S
DYERSBURG        N/A    N/A N/A N/A MISG        N/A
PARIS          CLEAR     64  64 100 CALM      30.07S
LEXINGTON      CLEAR     68  66  94 CALM      30.05S
$$

TNZ008-025-027-028-033-062-065-066-010700-
NORTH MIDDLE TENNESSEE

CITY           SKY/WX    TMP DP  RH WIND       PRES   REMARKS
NASHVILLE      CLEAR     72  58  61 CALM      30.05S
CLARKSVILLE    CLEAR     72  68  87 CALM      30.05F
CROSSVILLE     CLEAR     64  59  83 CALM      30.10S
$$

TNZ061-075-076-078-094-096-097-010700-
SOUTH MIDDLE TENNESSEE

CITY           SKY/WX    TMP DP  RH WIND       PRES   REMARKS
FAYETTEVILLE   CLEAR     66  59  77 N5        30.05F
TULLAHOMA      CLEAR     63  59  88 CALM      30.07S
WINCHESTER     CLEAR     61  59  94 CALM      30.06S
MCMINNVILLE    CLEAR     63  63 100 CALM      30.06F
COLUMBIA       CLEAR     66  66 100 CALM      30.04S
SHELBYVILLE    CLEAR     64  64 100 CALM      30.06S
$$

TNZ017-018-042-046-047-010700-
NORTHEAST TENNESSEE

CITY           SKY/WX    TMP DP  RH WIND       PRES   REMARKS
TRI CITIES     CLEAR     61  59  93 CALM      30.06F
ELIZABETHTON   CLEAR     57  55  94 CALM      30.08S
$$

TNZ012-013-036-069-073-074-010700-
CENTRAL EAST TENNESSEE

CITY           SKY/WX    TMP DP  RH WIND       PRES   REMARKS
KNOXVILLE      CLEAR     67  63  87 CALM      30.04S
OAK RIDGE      CLEAR     67  63  87 CALM      30.06F
GATLINBURG     CLEAR     64  61  88 CALM      30.05S
$$

TNZ083-085-099-010700-
SOUTHEAST TENNESSEE

CITY           SKY/WX    TMP DP  RH WIND       PRES   REMARKS
CHATTANOOGA    CLEAR     69  62  78 NW3       30.02F
$$

SKY/WX REPORTED AS FAIR MEANS FEW OR NO CLOUDS BELOW
12 THOUSAND FEET.



USA.gov is the U.S. government's official web portal to all federal, state and local government web resources and services.